Retour au catalogue

ONEWEB-0315

ActifCommunicationsPO
NORAD 49101·PAYLOAD·🇬🇧 United Kingdom

Lancé Aug 21, 2021 depuis Baikonur Cosmodrome

Loading…

Prochains Passages (prochaines 24 heures)

TLE

FraisSource: CelesTrak SupGP

Époque: Sep 14, 2026, 19:24 UTC

1 49101C 21075AC  26257.80884676 -.00002751  00000+0 -76568-2 0  2576
2 49101  87.8992 332.8559 0002138 109.3853 353.0560 13.12448255    16

Suivez ONEWEB-0315 en temps réel avec AllMySat

Download on the App Store